Location: Riccovolto
(44.2667°N, 10.5500°E)
Time: 16:53:40
(UTC+00:00)

Daily predictions for brighter satellites

Satellite Brightness Start Highest point End
(mag) Time Altitude Azimuth Time Altitude Azimuth Time Altitude Azimuth
BREEZE-M DEB (TANK) 2.8 18:54:42 10° SW 18:57:35 60° SE 19:05:55 10° ENE
ATLAS 3B R/B 3.6 18:55:23 10° NW 19:02:19 55° WSW 19:09:29 10° SSE
COSMOS 2455 4.2 19:03:35 10° SE 19:07:28 18° ESE 19:11:21 10° ENE
ERS-2 3.2 19:05:10 10° NE 19:08:13 25° E 19:11:15 10° SSE
Cosmos 332 Rocket 4.0 19:05:58 10° NNW 19:10:54 80° WSW 19:15:48 10° SSE
GEOS 3 Rocket 3.7 19:06:41 10° NE 19:11:48 57° ESE 19:16:49 10° SSW
Meteor 2-3 Rocket 3.9 19:08:00 10° S 19:13:34 58° E 19:19:12 10° NNE
Cosmos 2082 Rocket 4.3 19:09:08 10° WSW 19:14:10 32° NW 19:19:16 10° N
NOSS 2-1 (C) 3.0 19:12:49 10° SSW 19:16:05 49° ESE 19:19:17 10° NE
SAR-Lupe-1 4.0 19:13:16 10° NNE 19:16:50 69° ESE 19:20:24 10° S
Cosmos 2360 Rocket 2.9 19:12:16 10° NNW 19:17:32 38° NE 19:22:46 10° SE
Ariane Rocket 3.1 19:12:39 10° SSE 19:17:37 60° ENE 19:22:36 10° N
Cosmos 1606 4.2 19:14:58 10° NNW 19:18:30 38° W 19:22:03 10° SSW
Cosmos 2098 Rocket 3.4 19:15:29 10° SSW 19:18:56 61° WNW 19:23:14 10° N
SAR-Lupe-4 3.5 19:15:33 10° NNE 19:19:07 64° ESE 19:22:40 10° S
Helios 1A Rocket 3.2 19:16:19 10° S 19:20:21 73° WSW 19:24:29 10° NNW
NOSS 2-1 (D) 2.8 19:20:33 10° SSW 19:23:53 63° ESE 19:27:09 10° NE
SPOT 3 Rocket 4.2 19:19:36 10° SE 19:24:25 39° ENE 19:29:13 10° N
Cosmos 304 Rocket 4.2 19:19:58 10° NNW 19:24:42 63° WSW 19:29:24 10° S
Meteor 2-19 Rocket 4.4 19:18:58 10° S 19:24:59 78° E 19:31:04 10° N
Cosmos 1766 Rocket 4.3 19:21:21 10° SSE 19:25:15 33° E 19:29:10 10° NNE
Cosmos 2151 3.1 19:23:00 10° S 19:27:15 80° W 19:31:34 10° N
Cosmos 1624 Rocket 4.5 19:24:44 10° N 19:29:46 46° ENE 19:34:25 12° SE
Cosmos 2084 3.7 19:25:52 10° SW 19:29:53 69° NW 19:34:03 10° NE
Resurs 01 Rocket 1.9 19:27:57 10° SSE 19:32:16 52° ENE 19:36:36 10° N
GRACE-FO 1 4.5 19:29:07 10° N 19:32:44 69° E 19:36:19 10° S
GRACE-FO 2 4.5 19:29:35 10° N 19:33:11 70° E 19:36:46 10° S
Gbstr 26 Del rocket 3.9 19:32:25 10° WNW 19:35:48 33° SW 19:39:11 11° SSE
Cosmos 1812 3.6 19:38:06 10° N 19:41:36 32° ENE 19:44:02 17° SE
Cosmos 1933 3.6 19:37:52 10° NNW 19:41:54 69° W 19:45:52 10° S
Landsat 7 3.9 19:38:02 10° SSE 19:42:41 62° ENE 19:47:24 10° N
Cosmos 1862 4.2 19:40:34 14° SE 19:43:20 29° E 19:46:46 10° NNE
Cosmos 1782 2.8 19:39:51 10° N 19:43:51 72° E 19:47:38 11° SSE
Cosmos 1833 4.4 19:41:12 10° S 19:46:46 52° ESE 19:52:22 10° NE
SL-27 R/B 2.5 19:44:14 10° S 19:47:45 59° ESE 19:51:19 10° NNE
Cosmos 2333 Rocket 3.1 19:47:30 10° NNW 19:52:43 36° NE 19:56:32 17° ESE
BREEZE-M DEB (TANK) 2.7 19:50:18 10° WNW 19:53:15 64° SSW 19:58:28 17° SE
Cosmos 2237 Rocket 4.4 19:51:51 10° NNE 19:54:16 13° NE 19:56:41 10° ENE
Cosmos 2322 Rocket 2.4 19:49:15 10° NNW 19:54:51 70° WSW 20:00:04 12° SSE
SPOT 5 4.2 19:52:44 15° ESE 19:54:59 22° ENE 19:58:26 10° NNE
ARIANE 5 R/B 3.8 19:54:19 17° ESE 19:56:40 27° ENE 20:00:22 10° N
OBJECT-B 3.7 19:57:32 10° SW 19:59:21 14° W 20:01:10 10° WNW
BREEZE-M R/B 3.5 19:54:55 10° SSW 20:00:10 31° SSE 20:02:47 13° E
BREEZE-M DEB (TANK) 4.0 20:02:18 10° WNW 20:05:49 62° SSW 20:12:58 19° SE
Cosmos 2219 Rocket 3.0 20:01:41 10° NNW 20:06:54 38° NE 20:10:11 20° ESE
S3M 4.5 20:01:21 10° N 20:07:30 46° ENE 20:11:31 21° SE
Cosmos 2056 Rocket 3.6 20:06:19 10° NNW 20:11:40 80° WSW 20:15:29 19° SSE
ATLAS 5 CENTAUR R/B 3.2 20:07:52 10° NNW 20:12:59 38° NE 20:17:08 18° ESE
Meteor 2-14 Rocket 4.4 20:09:53 10° S 20:16:00 74° E 20:22:08 10° NNE
Spot 2 Rocket 3.7 20:14:04 24° SE 20:17:00 56° ENE 20:22:00 10° N
SPOT 1/Viking Rocket 3.5 20:14:27 19° SSE 20:18:15 87° ENE 20:23:31 10° NNW
USA 245 3.3 20:16:53 26° SSE 20:19:10 70° ENE 20:22:43 10° N
Cosmos 1408 Rocket 3.5 20:17:01 21° S 20:19:46 63° E 20:24:03 10° NNE
Cosmos 1655 Rocket 4.2 20:19:07 20° SSE 20:23:29 53° E 20:29:41 10° NNE
CZ-2C R/B 3.5 20:22:23 10° NNE 20:26:53 84° ESE 20:30:27 16° SSW
Cosmos 1743 Rocket 4.1 20:25:40 32° SE 20:26:54 39° E 20:31:02 10° NNE
SL-16 R/B 3.8 20:23:18 10° NW 20:28:05 29° WSW 20:32:52 10° SSW
GP-B 3.5 20:25:33 10° N 20:29:57 62° W 20:33:39 14° SSW
CARTOSAT-1 3.5 20:29:08 33° SSE 20:31:01 73° ENE 20:35:20 10° N
Cosmos 1151 Rocket 4.1 20:28:28 10° NNW 20:32:37 43° W 20:36:06 14° SSW
Lacrosse 5 2.4 20:33:37 32° SSE 20:34:35 35° SE 20:39:10 10° ENE
NOSS 3-1 (C) 4.1 20:27:54 10° NW 20:35:31 88° SW 20:40:55 26° SSE
Cosmos 2333 4.1 20:33:29 10° NNW 20:39:07 89° WSW 20:41:51 32° SSE
Meteor 1-10 Rocket 4.2 20:38:13 10° NNW 20:43:48 85° W 20:46:47 29° S
COSMOS 2487 2.2 20:45:40 57° SSW 20:46:17 89° WNW 20:49:42 10° NNE
Cosmos 1515 Rocket 3.7 20:45:37 10° NNW 20:50:00 69° W 20:51:44 35° SSW
COSMOS 2428 2.8 20:46:02 10° NNW 20:51:44 67° ENE 20:53:52 38° SE
COSMOS 2455 2.9 20:46:39 10° SW 20:52:40 78° WNW 20:58:44 10° NNE
USA 229 DEB 3.9 20:46:18 10° NW 20:53:41 79° NE 20:57:36 33° SE
USA 229 3.9 20:46:24 10° NW 20:53:47 78° NE 20:57:42 33° SE
Terra 1.9 20:54:30 45° SE 20:55:46 62° ENE 21:00:29 10° N
Cosmos 2360 Rocket 3.4 20:56:25 10° NW 21:01:27 34° WSW 21:04:37 20° SSW
Cosmos 2084 Rocket 4.1 20:57:31 10° NNW 21:01:33 44° NE 21:02:26 38° E
Cosmos 1048 Rocket 3.8 20:59:48 34° S 21:02:02 77° ESE 21:07:10 10° NNE
Cosmos 972 Rocket 3.9 21:01:59 26° SSW 21:04:56 86° WNW 21:09:54 10° NNE
Resurs 01 Rocket 4.1 21:06:18 10° SW 21:09:04 16° W 21:11:50 10° NW
Cosmos 489 Rocket 4.4 21:06:25 31° S 21:09:36 72° ESE 21:15:58 10° NNE
Cosmos 2266 Rocket 4.1 21:09:42 25° SSW 21:13:32 75° W 21:19:51 10° N
NOSS 3-1 (A) 4.1 21:06:42 10° NW 21:14:20 83° SW 21:18:16 37° SSE
IRIDIUM 106 4.3 21:09:09 10° N 21:14:22 68° E 21:15:24 54° SE
Cosmos 1707 Rocket 4.2 21:12:36 10° N 21:16:40 40° ENE 21:16:40 40° ENE
H-2A R/B 3.8 21:13:22 10° NNE 21:17:03 51° ENE 21:17:03 51° ENE
Okean 1 4.5 21:14:12 10° N 21:17:20 31° ENE 21:17:20 31° ENE
Cosmos 1980 4.3 21:12:40 10° NNW 21:18:06 44° ENE 21:19:35 36° E
ERS-1 Rocket 3.4 21:20:13 39° SSW 21:21:47 54° W 21:26:44 10° NNW
Gblst 52 Del rocket 4.4 21:16:46 10° WNW 21:22:52 76° SW 21:24:54 47° SE
Cosmos 2228 Rocket 3.1 21:22:00 10° NNW 21:26:25 72° W 21:26:53 65° SW
Cosmos 2297 Rocket 2.7 21:31:26 42° E 21:31:26 42° E 21:36:20 10° NE
Cosmos 2285 Rocket 4.1 21:24:51 10° NNW 21:31:05 66° WSW 21:33:04 44° S
Cosmos 1805 Rocket 3.6 21:31:35 64° SW 21:32:04 71° W 21:36:30 10° N
SPOT 5 3.6 21:31:58 34° SW 21:32:49 38° W 21:37:01 10° NNW
ARIANE 5 R/B 4.0 21:31:52 27° SW 21:33:01 31° W 21:36:58 10° NNW
Cosmos 972 4.4 21:32:40 56° SSW 21:33:51 87° ESE 21:38:56 10° NNE
BREEZE-M DEB (TANK) 2.8 21:30:48 10° WNW 21:34:37 51° NW 21:34:37 51° NW
Cosmos 2315 Rocket 4.1 21:29:08 10° NNW 21:35:28 73° W 21:37:36 44° SSW
NOSS 0 Rocket 3.8 21:30:10 10° NNW 21:36:27 85° ENE 21:37:53 56° SSE
Cosmos 2333 Rocket 3.2 21:31:49 10° NW 21:36:58 37° WSW 21:38:33 31° SW
Cosmos 2237 Rocket 2.4 21:33:57 10° NNW 21:39:35 60° ENE 21:40:34 52° ESE
Meteor 1-20 Rocket 4.2 21:40:22 53° SSW 21:41:47 83° W 21:47:33 10° N
Cosmos 1452 Rocket 4.5 21:38:33 10° NW 21:43:21 37° WSW 21:44:29 33° SW
Cosmos 2227 Rocket 2.9 21:44:49 38° E 21:44:49 38° E 21:49:16 10° NE
ALOS 2 4.3 21:45:45 22° ENE 21:45:45 22° ENE 21:48:59 10° NNE
Cosmos 2219 Rocket 3.2 21:45:47 10° NW 21:50:46 34° WSW 21:51:54 31° SW
Cosmos 1745 Rocket 4.5 21:50:35 41° E 21:51:00 42° E 21:56:52 10° NNE
Meteor 1-14 Rocket 4.5 21:51:39 51° E 21:51:39 51° E 21:57:06 10° NNE
Sich 1 3.5 21:53:27 53° W 21:53:34 53° WNW 21:57:48 10° N
ATLAS 5 CENTAUR R/B 2.8 21:52:16 10° NW 21:57:49 49° WSW 21:58:38 46° SW
BREEZE-M DEB (TANK) 4.3 21:42:51 10° WSW 21:58:51 79° SSE 22:02:13 22° ENE
Cosmos 1331 Rocket 4.2 21:54:14 10° NNW 21:59:21 57° WSW 21:59:36 57° WSW
Cosmos 1110 Rocket 4.4 21:55:38 10° NNW 22:00:46 51° WSW 22:01:08 50° WSW
Nadezhda 1 Rocket 4.2 21:59:32 10° N 22:05:51 57° ENE 22:06:40 53° ESE
Cosmos 1633 Rocket 3.5 22:10:51 59° NNW 22:10:51 59° NNW 22:14:29 10° N
SL-16 R/B 3.0 22:06:42 10° NNW 22:12:02 40° ENE 22:12:56 37° E
Cosmos 1470 Rocket 4.4 22:14:08 43° NNE 22:14:08 43° NNE 22:17:12 10° NNE
NOSS 2-2 (C) 4.4 22:07:52 10° NW 22:13:22 90° E 22:14:24 66° SE
Cosmos 1666 4.3 22:15:50 30° NNE 22:15:50 30° NNE 22:17:56 10° NNE
Lacrosse 5 2.7 22:12:30 10° WSW 22:17:26 50° NW 22:22:22 10° NE
Cosmos 1666 Rocket 4.3 22:21:09 47° WNW 22:21:09 47° WNW 22:25:12 10° N
Timation 1 Rocket 4.3 22:21:27 64° E 22:21:27 64° E 22:27:06 10° NNE
Cosmos 1340 Rocket 4.4 22:28:39 30° NNE 22:28:39 30° NNE 22:30:47 10° NNE
Terra 4.0 22:33:24 15° W 22:33:55 15° W 22:36:42 10° NW
CZ-4C R/B 3.5 22:30:33 10° NNW 22:37:33 54° NE 22:41:11 32° ESE
Timation 2 Rocket 3.7 22:39:27 81° ESE 22:39:28 81° ESE 22:45:40 10° NNE
Meteor 2-4 Rocket 3.8 22:34:46 10° NNW 22:40:38 69° W 22:40:46 69° WSW
CZ-3B R/B 3.4 22:35:24 10° NW 22:39:48 35° WNW 22:39:48 35° WNW
Cosmos 1992 Rocket 4.1 22:38:27 10° NNW 22:43:15 70° NNE 22:43:15 70° NNE
Cosmos 2242 Rocket 4.5 22:41:17 10° N 22:44:34 46° NNE 22:44:34 46° NNE
USA 267 3.1 22:41:21 10° NE 22:47:54 72° SE 22:48:10 71° SSE
Cosmos 2219 3.5 22:48:17 55° W 22:49:02 60° WNW 22:54:46 10° NNE
Meteor 1-5 Rocket 4.3 22:49:37 68° W 22:49:54 69° WNW 22:55:51 10° N
Cosmos 1066 Rocket 4.4 22:49:35 10° N 22:55:27 66° ENE 22:55:27 66° ENE
Cosmos 2082 3.7 23:01:12 77° NE 23:01:12 77° NE 23:06:33 10° NNE
Cosmos 909 Rocket 4.4 23:02:47 50° WSW 23:04:36 71° NW 23:12:27 10° NNE
Meteor 1-11 Rocket 3.7 23:05:19 74° NE 23:05:19 74° NE 23:10:25 10° NNE
Okean 1-7 4.3 23:06:48 10° NNW 23:09:33 38° NNW 23:09:33 38° NNW
Cosmos 2181 Rocket 4.0 23:06:13 10° N 23:12:29 68° E 23:12:46 67° E
Cosmos 2297 Rocket 3.6 23:13:12 26° W 23:15:10 32° NW 23:20:15 10° N
Nimbus 7 Rocket 4.3 23:12:45 10° NNE 23:18:46 84° WNW 23:18:52 84° W
USA 234 3.5 23:18:04 32° ESE 23:21:15 65° NNE 23:27:44 10° NW
Meteor 1-23 Rocket 4.3 23:15:55 10° N 23:21:35 72° ENE 23:21:35 72° ENE
ALOS 2 4.2 23:23:09 29° WNW 23:23:09 29° WNW 23:25:49 10° NNW
Cosmos 614 Rocket 4.2 23:23:41 66° NNE 23:23:41 66° NNE 23:28:12 10° NNE
Cosmos 2237 Rocket 3.9 23:18:58 10° NW 23:22:23 21° W 23:22:23 21° W
Cosmos 1461 4.1 23:27:18 44° N 23:27:18 44° N 23:30:34 10° NNE
Cosmos 1709 Rocket 4.1 23:26:19 61° WSW 23:26:48 63° W 23:33:11 10° N
Cosmos 2227 Rocket 3.5 23:26:36 29° W 23:28:08 34° NW 23:33:15 10° N
Cosmos 2263 Rocket 2.6 23:33:28 53° E 23:33:28 53° E 23:38:21 10° NNE
Cosmos 2344 3.7 23:34:40 49° SE 23:35:01 50° ESE 23:42:16 10° NE
Cosmos 1603 4.2 23:35:18 10° NNW 23:40:47 50° ENE 23:41:32 47° E
PSLV R/B 4.3 23:38:47 10° NNE 23:42:34 57° N 23:42:34 57° N
ASTEX 1 4.0 23:46:47 51° ENE 23:46:47 51° ENE 23:51:09 10° N
Meteor 2-9 Rocket 4.5 23:50:41 55° ENE 23:50:41 55° ENE 23:55:38 10° NNE
Thor Agena Rocket 3.8 23:48:02 10° N 23:52:34 62° NW 23:52:34 62° NW
Cosmos 44 4.3 23:47:57 10° NW 23:51:25 39° WNW 23:51:25 39° WNW
